• In Hungary
  • List of Countries
  • For 7 days
  • Water Temperature
  • Satellite Maps
  • Weather Map
  • News
  • Weather Widgets
  • user-avatar
    Login

    Hourly Weather Springville

    Today, 25 June, Monday

    Time Temperature Precipitation Wind Pressure Humidity
    00:00 +15°C° 0 mm 1 mps 638 mmHg 60%
    01:00 +14°C° 0 mm 1 mps 638 mmHg 62%
    02:00 +14°C° 0 mm 1 mps 638 mmHg 63%
    03:00 +14°C° 0 mm 1 mps 638 mmHg 64%
    04:00 +13°C° 0 mm 1 mps 638 mmHg 64%
    05:00 +13°C° 0 mm 1 mps 638 mmHg 65%
    06:00 +16°C° 0 mm 1 mps 639 mmHg 55%
    07:00 +20°C° 0 mm 1 mps 640 mmHg 44%
    08:00 +23°C° 0 mm 1 mps 641 mmHg 34%
    09:00 +25°C° 0 mm 2 mps 641 mmHg 30%
    10:00 +27°C° 0 mm 2 mps 642 mmHg 27%
    11:00 +29°C° 0 mm 2 mps 642 mmHg 23%
    12:00 +30°C° 0 mm 3 mps 642 mmHg 21%
    13:00 +31°C° 0 mm 3 mps 642 mmHg 20%
    14:00 +33°C° 0 mm 3 mps 642 mmHg 18%
    15:00 +33°C° 0 mm 3 mps 641 mmHg 18%
    16:00 +33°C° 0 mm 3 mps 641 mmHg 18%
    17:00 +33°C° 0 mm 3 mps 641 mmHg 17%
    18:00 +29°C° 0 mm 2 mps 640 mmHg 22%
    19:00 +26°C° 0 mm 2 mps 639 mmHg 27%
    20:00 +23°C° 0 mm 1 mps 638 mmHg 32%
    21:00 +21°C° 0 mm 2 mps 638 mmHg 31%
    22:00 +21°C° 0 mm 2 mps 638 mmHg 31%
    23:00 +20°C° 0 mm 2 mps 638 mmHg 30%

    Tomorrow, 26 June, Tuesday

    Time Temperature Precipitation Wind Pressure Humidity
    00:00 +20°C° 0 mm 2 mps 638 mmHg 29%
    01:00 +19°C° 0 mm 2 mps 638 mmHg 28%
    02:00 +19°C° 0 mm 2 mps 638 mmHg 28%
    03:00 +19°C° 0 mm 2 mps 638 mmHg 27%
    04:00 +19°C° 0 mm 2 mps 638 mmHg 27%
    05:00 +19°C° 0 mm 2 mps 638 mmHg 27%
    06:00 +21°C° 0 mm 2 mps 639 mmHg 26%
    07:00 +25°C° 0 mm 2 mps 641 mmHg 25%
    08:00 +28°C° 0 mm 2 mps 642 mmHg 24%
    09:00 +29°C° 0 mm 2 mps 642 mmHg 22%
    10:00 +31°C° 0 mm 3 mps 642 mmHg 20%
    11:00 +34°C° 0 mm 3 mps 643 mmHg 17%
    12:00 +35°C° 0 mm 3 mps 643 mmHg 17%
    13:00 +35°C° 0 mm 4 mps 643 mmHg 16%
    14:00 +36°C° 0 mm 4 mps 642 mmHg 15%
    15:00 +36°C° 0 mm 4 mps 642 mmHg 15%
    16:00 +36°C° 0 mm 4 mps 641 mmHg 15%
    17:00 +36°C° 0 mm 4 mps 641 mmHg 16%
    18:00 +31°C° 0 mm 3 mps 640 mmHg 21%
    19:00 +28°C° 0 mm 2 mps 639 mmHg 26%
    20:00 +25°C° 0 mm 1 mps 638 mmHg 31%
    21:00 +24°C° 0 mm 2 mps 638 mmHg 31%
    22:00 +24°C° 0 mm 2 mps 638 mmHg 30%
    23:00 +23°C° 0 mm 2 mps 638 mmHg 30%

    Day after tomorrow, 27 June, Wednesday

    Time Temperature Precipitation Wind Pressure Humidity
    00:00 +21°C° 0 mm 2 mps 638 mmHg 29%
    01:00 +21°C° 0 mm 2 mps 638 mmHg 29%
    02:00 +20°C° 0 mm 2 mps 638 mmHg 28%
    03:00 +20°C° 0 mm 2 mps 638 mmHg 28%
    04:00 +19°C° 0 mm 2 mps 638 mmHg 27%
    05:00 +19°C° 0 mm 2 mps 638 mmHg 27%
    06:00 +23°C° 0 mm 2 mps 639 mmHg 25%
    07:00 +26°C° 0 mm 2 mps 640 mmHg 22%
    08:00 +29°C° 0 mm 3 mps 641 mmHg 20%
    09:00 +30°C° 0 mm 3 mps 642 mmHg 18%
    10:00 +33°C° 0 mm 4 mps 642 mmHg 16%
    11:00 +35°C° 0 mm 4 mps 642 mmHg 14%
    12:00 +36°C° 0 mm 5 mps 642 mmHg 13%
    13:00 +36°C° 0 mm 5 mps 641 mmHg 12%
    14:00 +38°C° 0 mm 6 mps 641 mmHg 11%
    15:00 +38°C° 0 mm 6 mps 640 mmHg 11%
    16:00 +37°C° 0 mm 5 mps 640 mmHg 11%
    17:00 +36°C° 0 mm 5 mps 639 mmHg 11%
    18:00 +33°C° 0 mm 5 mps 638 mmHg 13%
    19:00 +29°C° 0 mm 4 mps 638 mmHg 16%
    20:00 +26°C° 0 mm 3 mps 637 mmHg 18%
    21:00 +25°C° 0 mm 3 mps 637 mmHg 17%
    22:00 +24°C° 0 mm 3 mps 637 mmHg 16%
    23:00 +22°C° 0 mm 4 mps 637 mmHg 15%

    28 June, Thursday

    Time Temperature Precipitation Wind Pressure Humidity
    00:00 +21°C° 0 mm 3 mps 636 mmHg 14%
    01:00 +20°C° 0 mm 3 mps 636 mmHg 14%
    02:00 +20°C° 0 mm 3 mps 636 mmHg 13%
    03:00 +19°C° 0 mm 3 mps 636 mmHg 14%
    04:00 +19°C° 0 mm 3 mps 636 mmHg 15%
    05:00 +18°C° 0 mm 3 mps 635 mmHg 16%
    06:00 +21°C° 0 mm 3 mps 636 mmHg 17%
    07:00 +25°C° 0 mm 4 mps 637 mmHg 17%
    08:00 +28°C° 0 mm 4 mps 638 mmHg 18%
    09:00 +29°C° 0 mm 5 mps 638 mmHg 17%
    10:00 +32°C° 0 mm 6 mps 639 mmHg 16%
    11:00 +33°C° 0 mm 7 mps 639 mmHg 14%
    12:00 +34°C° 0 mm 7 mps 638 mmHg 13%
    13:00 +35°C° 0 mm 7 mps 638 mmHg 11%
    14:00 +35°C° 0 mm 7 mps 638 mmHg 10%
    15:00 +35°C° 0 mm 8 mps 637 mmHg 10%
    16:00 +35°C° 0 mm 8 mps 637 mmHg 10%
    17:00 +34°C° 0 mm 8 mps 636 mmHg 10%
    18:00 +32°C° 0 mm 7 mps 635 mmHg 12%
    19:00 +28°C° 0 mm 6 mps 635 mmHg 14%
    20:00 +26°C° 0 mm 5 mps 634 mmHg 16%
    21:00 +23°C° 0 mm 4 mps 634 mmHg 18%
    22:00 +22°C° 0 mm 4 mps 635 mmHg 21%
    23:00 +20°C° 0 mm 3 mps 635 mmHg 23%

    29 June, Friday

    Time Temperature Precipitation Wind Pressure Humidity
    00:00 +19°C° 0 mm 2 mps 635 mmHg 27%
    01:00 +18°C° 0 mm 2 mps 635 mmHg 32%
    02:00 +16°C° 0 mm 1 mps 635 mmHg 36%
    03:00 +16°C° 0 mm 1 mps 635 mmHg 38%
    04:00 +15°C° 0 mm 1 mps 635 mmHg 39%
    05:00 +15°C° 0 mm 1 mps 635 mmHg 41%
    06:00 +18°C° 0 mm 1 mps 636 mmHg 38%
    07:00 +21°C° 0 mm 1 mps 637 mmHg 35%
    08:00 +24°C° 0 mm 1 mps 638 mmHg 32%
    09:00 +25°C° 0 mm 2 mps 638 mmHg 28%
    10:00 +27°C° 0 mm 3 mps 638 mmHg 25%
    11:00 +28°C° 0 mm 4 mps 639 mmHg 22%
    12:00 +29°C° 0 mm 4 mps 638 mmHg 21%
    13:00 +29°C° 0 mm 5 mps 638 mmHg 20%
    14:00 +30°C° 0 mm 5 mps 638 mmHg 19%
    15:00 +29°C° 0 mm 6 mps 638 mmHg 24%
    16:00 +27°C° 0 mm 7 mps 637 mmHg 28%
    17:00 +26°C° 0 mm 7 mps 637 mmHg 33%
    18:00 +23°C° 0.2 mm 6 mps 637 mmHg 42%
    19:00 +20°C° 0.2 mm 4 mps 636 mmHg 52%
    20:00 +18°C° 0.2 mm 2 mps 636 mmHg 61%
    21:00 +17°C° 0.1 mm 2 mps 636 mmHg 64%
    22:00 +16°C° 0.1 mm 1 mps 637 mmHg 68%
    23:00 +15°C° 0.1 mm 1 mps 637 mmHg 71%

    30 June, Saturday

    Time Temperature Precipitation Wind Pressure Humidity
    00:00 +15°C° 0 mm 1 mps 637 mmHg 72%
    01:00 +15°C° 0 mm 1 mps 637 mmHg 72%
    02:00 +15°C° 0 mm 1 mps 637 mmHg 73%
    03:00 +14°C° 0 mm 1 mps 637 mmHg 75%
    04:00 +13°C° 0 mm 1 mps 637 mmHg 76%
    05:00 +12°C° 0 mm 1 mps 637 mmHg 78%
    06:00 +15°C° 0 mm 1 mps 638 mmHg 68%
    07:00 +18°C° 0 mm 1 mps 639 mmHg 58%
    08:00 +19°C° 0 mm 2 mps 640 mmHg 47%
    09:00 +20°C° 0 mm 2 mps 640 mmHg 42%
    10:00 +22°C° 0 mm 3 mps 641 mmHg 37%
    11:00 +23°C° 0 mm 4 mps 641 mmHg 31%
    12:00 +25°C° 0 mm 4 mps 641 mmHg 30%
    13:00 +26°C° 0 mm 5 mps 641 mmHg 29%
    14:00 +26°C° 0 mm 5 mps 640 mmHg 27%
    15:00 +26°C° 0 mm 5 mps 640 mmHg 28%
    16:00 +25°C° 0 mm 5 mps 640 mmHg 28%
    17:00 +24°C° 0 mm 6 mps 640 mmHg 28%
    18:00 +21°C° 0 mm 4 mps 639 mmHg 33%
    19:00 +19°C° 0 mm 3 mps 639 mmHg 37%
    20:00 +17°C° 0 mm 2 mps 639 mmHg 42%
    21:00 +16°C° 0 mm 2 mps 639 mmHg 45%
    22:00 +14°C° 0 mm 2 mps 639 mmHg 48%
    23:00 +13°C° 0 mm 1 mps 639 mmHg 51%
    Show more